BVX450D LMML-GBYD

Flight info

Callsign BVX450D
Flight time N/A
Altitude 30000
Route OBITA P624 BIRSA/N0481F340 UG361 ELO UJ28 TGU DCT MNA UR990 TIO/N0479F360 UM725 SBITA DCT POSIV
Aircraft B77W/H-SDE1E2E3FGHIJ2J3J4J5M1RWXY/LB1D1

Departure

Time 2026-05-06 12:14
Airport Malta International Airport (LMML)

Arrival

Time N/A
Airport Banjul International Airport (GBYD)
Time Latitude Longitude Altitude Speed Heading
2026-05-06 11:41 35.84996 14.49274 255 ft 0 kts
2026-05-06 12:07 35.84993 14.49274 255 ft 1 kts
2026-05-06 12:07 35.84953 14.49277 255 ft 16 kts 347°
2026-05-06 12:08 35.84930 14.49286 255 ft 0 kts 327°
2026-05-06 12:09 35.84931 14.49284 255 ft 2 kts 319°
2026-05-06 12:09 35.84934 14.49241 255 ft 11 kts 268°
2026-05-06 12:09 35.84906 14.49149 255 ft 10 kts 252°
2026-05-06 12:10 35.84932 14.49047 255 ft 16 kts 298°
2026-05-06 12:10 35.84966 14.48961 255 ft 6 kts 292°
2026-05-06 12:10 35.84989 14.48887 255 ft 14 kts 289°
2026-05-06 12:10 35.85037 14.48713 256 ft 28 kts 289°
2026-05-06 12:11 35.85162 14.48476 257 ft 37 kts 314°
2026-05-06 12:11 35.85338 14.48255 255 ft 36 kts 314°
2026-05-06 12:11 35.85516 14.48042 254 ft 35 kts 320°
2026-05-06 12:11 35.85616 14.47952 255 ft 8 kts 325°
2026-05-06 12:12 35.85624 14.47945 255 ft 1 kts 322°
2026-05-06 12:12 35.85625 14.47929 255 ft 1 kts 262°
2026-05-06 12:12 35.85609 14.47920 255 ft 4 kts 177°
2026-05-06 12:12 35.85588 14.47946 255 ft 4 kts 130°
2026-05-06 12:13 35.85568 14.47974 255 ft 4 kts 133°
2026-05-06 12:13 35.85500 14.48061 254 ft 33 kts 135°
2026-05-06 12:13 35.85085 14.48577 256 ft 139 kts 135°
2026-05-06 12:13 35.84206 14.49667 740 ft 195 kts 133°
2026-05-06 12:14 35.83332 14.50882 2534 ft 182 kts 134°
2026-05-06 12:14 35.82367 14.51889 3368 ft 197 kts 156°
2026-05-06 12:14 35.80881 14.51949 3538 ft 233 kts 198°
2026-05-06 12:14 35.79553 14.50666 4213 ft 256 kts 231°
2026-05-06 12:15 35.78626 14.48749 4971 ft 265 kts 234°
2026-05-06 12:15 35.77685 14.46787 5856 ft 271 kts 236°
2026-05-06 12:15 35.76716 14.44789 6870 ft 271 kts 234°
2026-05-06 12:15 35.75735 14.42782 7800 ft 274 kts 235°
2026-05-06 12:16 35.74818 14.40745 8753 ft 274 kts 248°
2026-05-06 12:16 35.74361 14.38463 9540 ft 281 kts 261°
2026-05-06 12:16 35.74206 14.36055 10443 ft 282 kts 270°
2026-05-06 12:16 35.74373 14.33562 10899 ft 304 kts 276°
2026-05-06 12:17 35.74665 14.30894 11068 ft 333 kts 277°
2026-05-06 12:17 35.75017 14.27948 11355 ft 358 kts 277°
2026-05-06 12:17 35.75398 14.24858 12093 ft 367 kts 278°
2026-05-06 12:17 35.75785 14.21773 13055 ft 368 kts 278°
2026-05-06 12:18 35.76175 14.18658 14120 ft 369 kts 277°
2026-05-06 12:18 35.76571 14.15495 14873 ft 377 kts 277°
2026-05-06 12:18 35.76970 14.12290 15767 ft 379 kts 277°
2026-05-06 12:18 35.77367 14.09078 16489 ft 387 kts 277°
2026-05-06 12:19 35.77776 14.05769 17259 ft 393 kts 277°
2026-05-06 12:19 35.78188 14.02422 18048 ft 399 kts 277°
2026-05-06 12:19 35.78608 13.98997 18777 ft 403 kts 277°
2026-05-06 12:19 35.79027 13.95572 19593 ft 404 kts 277°
2026-05-06 12:20 35.79444 13.92162 20265 ft 409 kts 277°
2026-05-06 12:20 35.79868 13.88678 20961 ft 414 kts 277°
2026-05-06 12:20 35.80298 13.85136 21662 ft 417 kts 277°
2026-05-06 12:20 35.80730 13.81581 22438 ft 419 kts 277°
2026-05-06 12:21 35.81156 13.78055 23113 ft 423 kts 277°
2026-05-06 12:21 35.81590 13.74450 23718 ft 427 kts 277°
2026-05-06 12:21 35.82028 13.70809 24273 ft 430 kts 277°
2026-05-06 12:21 35.82469 13.67142 24867 ft 432 kts 277°
2026-05-06 12:22 35.82899 13.63502 25445 ft 431 kts 276°
2026-05-06 12:22 35.82956 13.59784 25855 ft 437 kts 263°
2026-05-06 12:22 35.82192 13.56134 26326 ft 442 kts 250°
2026-05-06 12:22 35.81045 13.52652 26864 ft 444 kts 249°
2026-05-06 12:23 35.79821 13.49129 27413 ft 446 kts 248°
2026-05-06 12:23 35.78574 13.45615 27999 ft 447 kts 248°
2026-05-06 12:23 35.77329 13.42094 28497 ft 449 kts 248°
2026-05-06 12:23 35.76102 13.38588 28905 ft 452 kts 249°
2026-05-06 12:24 35.74857 13.34999 29272 ft 455 kts 249°
2026-05-06 12:24 35.73612 13.31395 29697 ft 457 kts 249°
2026-05-06 12:24 35.72361 13.27767 29898 ft 462 kts 249°
2026-05-06 12:24 35.71110 13.24150 29946 ft 464 kts 249°
2026-05-06 12:25 35.68597 13.16861 29941 ft 458 kts 249°
2026-05-06 12:25 35.66139 13.09676 29952 ft 458 kts 248°
2026-05-06 12:26 35.63646 13.02432 29939 ft 459 kts 248°
2026-05-06 12:26 35.62404 12.98836 30105 ft 463 kts 248°
2026-05-06 12:26 35.61144 12.95192 30566 ft 460 kts 248°
2026-05-06 12:27 35.59896 12.91586 31167 ft 454 kts 248°
2026-05-06 12:27 35.58679 12.88072 31787 ft 448 kts 248°
2026-05-06 12:27 35.57462 12.84559 32391 ft 443 kts 248°
2026-05-06 12:27 35.56253 12.81073 32940 ft 439 kts 248°
2026-05-06 12:28 35.55063 12.77646 33274 ft 440 kts 248°
2026-05-06 12:28 35.53859 12.74180 33563 ft 442 kts 247°
2026-05-06 12:28 35.52650 12.70704 33867 ft 443 kts 247°
2026-05-06 12:28 35.51429 12.67198 33895 ft 445 kts 247°
2026-05-06 12:29 35.48984 12.60304 33908 ft 439 kts 246°
2026-05-06 12:29 35.46320 12.53548 33923 ft 438 kts 244°
2026-05-06 12:30 35.43636 12.46883 33915 ft 437 kts 244°
2026-05-06 12:30 35.40957 12.40167 33906 ft 438 kts 245°
2026-05-06 12:31 35.38299 12.33463 33925 ft 440 kts 245°
2026-05-06 12:31 35.35616 12.26698 33905 ft 441 kts 245°
2026-05-06 12:32 35.32934 12.19950 33906 ft 443 kts 245°
2026-05-06 12:32 35.30225 12.13151 33888 ft 443 kts 244°
2026-05-06 12:33 35.27529 12.06397 33876 ft 444 kts 244°
2026-05-06 12:33 35.24811 11.99604 33862 ft 444 kts 245°
2026-05-06 12:34 35.22095 11.92827 33865 ft 443 kts 245°
2026-05-06 12:34 35.19370 11.86045 33859 ft 443 kts 245°
2026-05-06 12:35 35.16665 11.79324 33847 ft 441 kts 246°
2026-05-06 12:35 35.13955 11.72608 33827 ft 437 kts 246°
2026-05-06 12:36 35.11285 11.66002 33860 ft 433 kts 247°
2026-05-06 12:36 35.08641 11.59470 33840 ft 429 kts 247°
2026-05-06 12:37 35.06002 11.52962 33838 ft 426 kts 247°
2026-05-06 12:37 35.03382 11.46474 33823 ft 425 kts 247°
2026-05-06 12:38 35.00814 11.40000 33832 ft 426 kts 247°
2026-05-06 12:38 34.98226 11.33480 33820 ft 427 kts 247°
2026-05-06 12:39 34.95653 11.27036 33812 ft 415 kts 249°
2026-05-06 12:39 34.93163 11.20809 33817 ft 404 kts 249°
2026-05-06 12:40 34.90704 11.14652 33819 ft 407 kts 249°
2026-05-06 12:40 34.88199 11.08448 33816 ft 409 kts 249°
2026-05-06 12:41 34.85625 11.02292 33827 ft 410 kts 248°
2026-05-06 12:41 34.83014 10.96078 33821 ft 411 kts 248°
2026-05-06 12:42 34.80422 10.89897 33821 ft 412 kts 248°
2026-05-06 12:42 34.77808 10.83666 33828 ft 412 kts 248°
2026-05-06 12:43 34.75218 10.77501 33823 ft 410 kts 249°
2026-05-06 12:43 34.72625 10.71337 33825 ft 407 kts 249°
2026-05-06 12:44 34.70099 10.65239 33827 ft 404 kts 250°
2026-05-06 12:44 34.67654 10.59089 33828 ft 402 kts 250°
2026-05-06 12:45 34.65221 10.52966 33821 ft 402 kts 250°
2026-05-06 12:46 34.61566 10.43828 33811 ft 402 kts 250°
2026-05-06 12:46 34.59125 10.37751 33802 ft 403 kts 250°
2026-05-06 12:47 34.56657 10.31620 33791 ft 403 kts 250°
2026-05-06 12:47 34.54192 10.25512 33780 ft 404 kts 250°
2026-05-06 12:48 34.51723 10.19401 33817 ft 404 kts 250°
2026-05-06 12:48 34.49663 10.14311 33791 ft 403 kts 250°
2026-05-06 12:49 34.47203 10.08244 33785 ft 402 kts 250°
2026-05-06 12:49 34.44335 10.01177 33789 ft 400 kts 250°
2026-05-06 12:50 34.42281 9.96129 33787 ft 400 kts 250°
2026-05-06 12:50 34.40042 9.89963 33794 ft 396 kts 256°
2026-05-06 12:51 34.38404 9.83627 33793 ft 395 kts 257°
2026-05-06 12:51 34.36745 9.77300 33799 ft 396 kts 256°
2026-05-06 12:52 34.35062 9.70915 33790 ft 397 kts 256°
2026-05-06 12:52 34.33380 9.64548 33786 ft 398 kts 256°
2026-05-06 12:53 34.31702 9.58200 33792 ft 399 kts 256°
2026-05-06 12:53 34.30002 9.51786 33795 ft 399 kts 256°
2026-05-06 12:54 34.28299 9.45378 33791 ft 400 kts 256°
2026-05-06 12:54 34.26604 9.39011 33784 ft 400 kts 256°
2026-05-06 12:55 34.24889 9.32587 33780 ft 400 kts 256°
2026-05-06 12:55 34.23189 9.26229 33782 ft 399 kts 256°
2026-05-06 12:56 34.21476 9.19837 33781 ft 399 kts 256°
2026-05-06 12:56 34.19884 9.13455 33784 ft 398 kts 257°
2026-05-06 12:57 34.18330 9.07024 33776 ft 398 kts 257°
2026-05-06 12:57 34.16772 9.00627 33775 ft 398 kts 257°
2026-05-06 12:58 34.15194 8.94203 33777 ft 399 kts 256°
2026-05-06 12:58 34.13616 8.87804 33763 ft 399 kts 256°
2026-05-06 12:59 34.12016 8.81339 33769 ft 401 kts 256°
2026-05-06 12:59 34.10421 8.74912 33758 ft 402 kts 256°
2026-05-06 13:00 34.08808 8.68423 33752 ft 403 kts 256°
2026-05-06 13:00 34.07206 8.61983 33739 ft 402 kts 256°
2026-05-06 13:01 34.05583 8.55503 33741 ft 402 kts 256°
2026-05-06 13:01 34.03971 8.49073 33735 ft 402 kts 256°
2026-05-06 13:02 34.02347 8.42607 33716 ft 402 kts 256°
2026-05-06 13:02 34.00733 8.36196 33708 ft 401 kts 256°
2026-05-06 13:03 33.99106 8.29746 33708 ft 401 kts 255°
2026-05-06 13:03 33.97485 8.23336 33695 ft 402 kts 255°
2026-05-06 13:04 33.95846 8.16868 33688 ft 402 kts 255°
2026-05-06 13:04 33.94212 8.10462 33661 ft 402 kts 254°
2026-05-06 13:05 33.92269 8.04098 33692 ft 406 kts 251°
2026-05-06 13:05 33.90245 7.97713 33700 ft 409 kts 251°
2026-05-06 13:06 33.88221 7.91312 33706 ft 412 kts 251°
2026-05-06 13:06 33.86181 7.84858 33705 ft 412 kts 251°
2026-05-06 13:07 33.84134 7.78390 33704 ft 411 kts 251°
2026-05-06 13:07 33.82109 7.72004 33710 ft 410 kts 251°
2026-05-06 13:08 33.80084 7.65629 33711 ft 408 kts 251°
2026-05-06 13:08 33.78051 7.59240 33722 ft 408 kts 251°
2026-05-06 13:09 33.76023 7.52909 33718 ft 407 kts 251°
2026-05-06 13:09 33.73928 7.46580 33714 ft 406 kts 250°
2026-05-06 13:10 33.71842 7.40318 33713 ft 405 kts 250°
2026-05-06 13:10 33.69758 7.34055 33712 ft 405 kts 251°
2026-05-06 13:11 33.67663 7.27757 33717 ft 405 kts 251°
2026-05-06 13:11 33.65562 7.21454 33718 ft 406 kts 250°
2026-05-06 13:12 33.63466 7.15176 33711 ft 406 kts 250°
2026-05-06 13:12 33.61364 7.08898 33713 ft 407 kts 250°
2026-05-06 13:13 33.59245 7.02577 33708 ft 407 kts 250°
2026-05-06 13:13 33.57134 6.96291 33702 ft 408 kts 250°
2026-05-06 13:14 33.55008 6.89975 33696 ft 407 kts 250°
2026-05-06 13:14 33.52895 6.83711 33706 ft 407 kts 250°
2026-05-06 13:15 33.50330 6.77636 33692 ft 409 kts 243°
2026-05-06 13:15 33.47085 6.71996 33693 ft 411 kts 237°
2026-05-06 13:16 33.43555 6.66601 33699 ft 411 kts 237°
2026-05-06 13:16 33.40045 6.61248 33704 ft 410 kts 237°
2026-05-06 13:17 33.36527 6.55866 33729 ft 410 kts 237°
2026-05-06 13:17 33.33025 6.50503 33735 ft 410 kts 237°
2026-05-06 13:18 33.29503 6.45114 33745 ft 410 kts 237°
2026-05-06 13:18 33.26001 6.39765 33732 ft 410 kts 237°
2026-05-06 13:19 33.22478 6.34391 33735 ft 410 kts 237°
2026-05-06 13:19 33.18951 6.29019 33727 ft 410 kts 237°
2026-05-06 13:20 33.15447 6.23690 33725 ft 410 kts 237°
2026-05-06 13:20 33.11913 6.18321 33720 ft 409 kts 237°
2026-05-06 13:21 33.08406 6.13000 33716 ft 409 kts 237°
2026-05-06 13:21 33.04831 6.07693 33735 ft 411 kts 234°
2026-05-06 13:22 33.01064 6.02615 33692 ft 411 kts 233°
2026-05-06 13:22 32.97266 5.97528 33728 ft 410 kts 234°
2026-05-06 13:23 32.93467 5.92432 33734 ft 411 kts 234°
2026-05-06 13:23 32.89697 5.87372 33739 ft 411 kts 234°
2026-05-06 13:24 32.85889 5.82265 33737 ft 412 kts 234°
2026-05-06 13:24 32.82088 5.77173 33739 ft 412 kts 234°
2026-05-06 13:25 32.78272 5.72071 33740 ft 412 kts 234°
2026-05-06 13:25 32.74479 5.67005 33722 ft 412 kts 233°
2026-05-06 13:26 32.70662 5.61915 33736 ft 412 kts 233°
2026-05-06 13:26 32.66846 5.56833 33741 ft 412 kts 233°
2026-05-06 13:27 32.63035 5.51764 33738 ft 412 kts 233°
2026-05-06 13:27 32.59206 5.46679 33741 ft 413 kts 233°
2026-05-06 13:28 32.55398 5.41628 33738 ft 413 kts 233°
2026-05-06 13:28 32.51565 5.36552 33736 ft 413 kts 233°
2026-05-06 13:29 32.47748 5.31504 33736 ft 412 kts 233°
2026-05-06 13:29 32.43906 5.26429 33738 ft 412 kts 233°
2026-05-06 13:30 32.40096 5.21405 33757 ft 412 kts 233°
2026-05-06 13:30 32.36258 5.16349 33743 ft 412 kts 233°
2026-05-06 13:31 32.32446 5.11334 33744 ft 412 kts 233°
2026-05-06 13:31 32.28592 5.06272 33743 ft 412 kts 233°
2026-05-06 13:32 32.24779 5.01271 33715 ft 412 kts 233°
2026-05-06 13:32 32.20939 4.96240 33745 ft 412 kts 232°
2026-05-06 13:33 32.17087 4.91201 33746 ft 412 kts 232°
2026-05-06 13:33 32.13254 4.86194 33746 ft 413 kts 232°
2026-05-06 13:34 32.09392 4.81156 33744 ft 413 kts 232°
2026-05-06 13:34 32.05556 4.76157 33746 ft 413 kts 232°
2026-05-06 13:35 32.01693 4.71132 33750 ft 413 kts 232°
2026-05-06 13:35 31.98483 4.66960 33714 ft 413 kts 232°
2026-05-06 13:36 31.94643 4.61976 33739 ft 413 kts 232°
2026-05-06 13:36 31.90139 4.56140 33762 ft 413 kts 232°